GW4824 Weather Reports


time (UTC)temp
C
wind
direction
speed
KPH
gust
KPH
rain 1hr
cm
rain 24hr
cm
rain mn
cm
humidity
%
barometer
mb
20260504050311 8 115 0.0 0.0 0.00 0.00 0.00 73 1011.8
20260504045803 8 338 1.6 1.6 0.00 0.00 0.00 73 1012.1
20260504045304 8 139 1.6 1.6 0.00 0.00 0.00 73 1012.0
20260504044800 8 117 0.0 0.0 0.00 0.00 0.00 75 1011.8
20260504044257 8 179 3.2 3.2 0.00 0.00 0.00 72 1012.0
20260504043754 8 138 1.6 3.2 0.00 0.00 0.00 73 1012.0
20260504043251 8 145 1.6 1.6 0.00 0.00 0.00 72 1012.1
20260504042749 8 147 1.6 1.6 0.00 0.00 0.00 74 1012.3
20260504042245 8 123 0.0 1.6 0.00 0.00 0.00 73 1012.0
20260504041741 8 124 1.6 1.6 0.00 0.00 0.00 72 1012.1
20260504041237 8 116 0.0 0.0 0.00 0.00 0.00 72 1012.1
20260504040733 8 179 1.6 1.6 0.00 0.00 0.00 73 1012.0
20260504040231 8 212 1.6 1.6 0.00 0.00 0.00 74 1012.2
20260504035727 8 108 0.0 0.0 0.00 0.00 0.00 73 1012.2
20260504035225 8 118 0.0 0.0 0.00 0.00 0.00 75 1012.3
20260504034722 8 97 0.0 0.0 0.00 0.00 0.00 74 1012.4
20260504034219 8 123 1.6 1.6 0.00 0.00 0.00 74 1012.5
20260504033717 8 107 0.0 0.0 0.00 0.00 0.00 76 1012.4
20260504033214 8 106 0.0 0.0 0.00 0.00 0.00 76 1012.5
20260504032711 8 111 0.0 0.0 0.00 0.00 0.00 77 1012.6
20260504032208 8 98 0.0 0.0 0.00 0.00 0.00 75 1012.4
20260504031705 8 112 0.0 0.0 0.00 0.00 0.00 77 1012.5
20260504031201 8 113 0.0 1.6 0.00 0.00 0.00 74 1012.5
20260504030657 8 81 0.0 1.6 0.00 0.00 0.00 74 1012.4
20260504030155 8 128 0.0 1.6 0.00 0.00 0.00 75 1012.9
20260504025651 8 117 0.0 0.0 0.00 0.00 0.00 73 1012.8
20260504025148 8 117 0.0 0.0 0.00 0.00 0.00 73 1012.8
20260504024646 8 115 0.0 0.0 0.00 0.00 0.00 72 1013.0
20260504024142 9 119 0.0 0.0 0.00 0.00 0.00 74 1013.1
20260504023639 9 117 0.0 0.0 0.00 0.00 0.00 71 1012.9
20260504023135 10 98 0.0 0.0 0.00 0.00 0.00 71 1012.9
20260504022631 10 114 0.0 0.0 0.00 0.00 0.00 67 1013.0
20260504022127 10 111 0.0 0.0 0.00 0.00 0.00 66 1012.9
20260504021625 10 128 0.0 1.6 0.00 0.00 0.00 65 1012.9
20260504021121 10 112 0.0 0.0 0.00 0.00 0.00 66 1012.9
20260504020619 10 42 0.0 1.6 0.00 0.00 0.00 68 1013.0
20260504020115 10 155 1.6 3.2 0.00 0.00 0.00 65 1012.9
20260504015611 10 114 0.0 0.0 0.00 0.00 0.00 66 1013.2
20260504015107 10 156 3.2 3.2 0.00 0.00 0.00 65 1012.8
20260504014603 10 158 1.6 1.6 0.00 0.00 0.00 65 1013.1
20260504014101 10 117 0.0 0.0 0.00 0.00 0.00 70 1013.0
20260504013558 10 112 0.0 0.0 0.00 0.00 0.00 69 1012.8
20260504013055 10 113 0.0 0.0 0.00 0.00 0.00 63 1012.9
20260504012552 10 115 0.0 0.0 0.00 0.00 0.00 65 1012.9
20260504012050 10 129 0.0 1.6 0.00 0.00 0.00 64 1012.9
20260504011547 10 113 0.0 0.0 0.00 0.00 0.00 63 1013.0
20260504011043 10 133 0.0 1.6 0.00 0.00 0.00 63 1012.8
20260504010539 10 124 1.6 3.2 0.00 0.00 0.00 61 1012.8
20260504010035 10 150 1.6 3.2 0.00 0.00 0.00 62 1013.1
20260504005532 10 236 3.2 4.8 0.00 0.00 0.00 62 1013.0
20260504005029 10 94 3.2 3.2 0.00 0.00 0.00 63 1013.1
20260504004527 10 266 3.2 3.2 0.00 0.00 0.00 60 1013.2
20260504004024 10 279 3.2 4.8 0.00 0.00 0.00 61 1013.2
20260504003520 10 174 1.6 1.6 0.00 0.00 0.00 61 1013.1
20260504003017 10 200 3.2 4.8 0.00 0.00 0.00 60 1012.9
20260504002514 10 203 3.2 4.8 0.00 0.00 0.00 60 1012.9
20260504002011 11 176 1.6 1.6 0.00 0.00 0.00 59 1013.2
20260504001509 11 158 4.8 11.3 0.00 0.00 0.00 56 1013.1
20260504001005 11 245 3.2 4.8 0.00 0.00 0.00 54 1012.9
20260504000502 12 218 6.4 9.7 0.00 0.00 0.00 50 1012.5
20260503235959 12 264 6.4 6.4 0.00 0.00 0.00 48 1012.6
20260503235457 12 183 3.2 4.8 0.00 0.00 0.00 46 1012.4
20260503234954 12 269 1.6 3.2 0.00 0.00 0.00 47 1012.4
20260503234452 12 344 3.2 4.8 0.00 0.00 0.00 45 1012.4
20260503233950 13 190 1.6 1.6 0.00 0.00 0.00 46 1012.6
20260503233446 13 276 1.6 1.6 0.00 0.00 0.00 45 1012.4
20260503232942 13 274 4.8 4.8 0.00 0.00 0.00 43 1012.5
20260503232439 13 228 1.6 3.2 0.00 0.00 0.00 42 1012.4
20260503231937 13 290 3.2 3.2 0.00 0.00 0.00 44 1012.6
20260503231434 13 175 1.6 3.2 0.00 0.00 0.00 46 1012.5
20260503230931 13 201 3.2 3.2 0.00 0.00 0.00 44 1012.5
20260503230427 13 202 3.2 4.8 0.00 0.00 0.00 44 1012.6
20260503225925 13 256 4.8 4.8 0.00 0.00 0.00 43 1012.4
20260503225422 13 209 3.2 3.2 0.00 0.00 0.00 41 1012.6
20260503224917 13 189 3.2 3.2 0.00 0.00 0.00 42 1012.9
20260503224414 13 286 3.2 3.2 0.00 0.00 0.00 44 1012.9
20260503223912 13 160 1.6 1.6 0.00 0.00 0.00 44 1013.0
20260503223410 13 169 0.0 1.6 0.00 0.00 0.00 46 1013.0
20260503222910 13 142 3.2 3.2 0.00 0.00 0.00 41 1012.9
20260503222409 13 66 1.6 1.6 0.00 0.00 0.00 45 1013.1
20260503221907 13 250 3.2 4.8 0.00 0.00 0.00 41 1013.2
20260503221405 13 89 3.2 4.8 0.00 0.00 0.00 41 1013.0
20260503220901 13 167 3.2 3.2 0.00 0.00 0.00 44 1012.9
20260503220358 13 175 3.2 4.8 0.00 0.00 0.00 45 1013.1
20260503215855 14 161 1.6 3.2 0.00 0.00 0.00 43 1013.2
20260503215352 14 103 3.2 4.8 0.00 0.00 0.00 43 1013.2
20260503214849 14 208 0.0 1.6 0.00 0.00 0.00 41 1013.1
20260503214347 14 143 4.8 6.4 0.00 0.00 0.00 39 1013.3
20260503213844 14 152 3.2 3.2 0.00 0.00 0.00 40 1013.2
20260503213341 14 151 3.2 6.4 0.00 0.00 0.00 39 1013.4
20260503212838 15 312 3.2 4.8 0.00 0.00 0.00 42 1013.2
20260503212336 15 342 4.8 4.8 0.00 0.00 0.00 39 1013.3
20260503211833 15 280 4.8 4.8 0.00 0.00 0.00 39 1013.4
20260503211330 15 258 1.6 3.2 0.00 0.00 0.00 40 1013.5
20260503210825 15 220 3.2 4.8 0.00 0.00 0.00 43 1013.4
20260503210322 15 182 1.6 3.2 0.00 0.00 0.00 42 1013.4
20260503205817 15 202 1.6 3.2 0.00 0.00 0.00 43 1013.4
20260503205314 15 249 3.2 4.8 0.00 0.00 0.00 38 1013.2
20260503204811 15 260 4.8 6.4 0.00 0.00 0.00 37 1013.3
20260503204309 15 222 1.6 3.2 0.00 0.00 0.00 38 1013.3
20260503203806 15 94 1.6 1.6 0.00 0.00 0.00 39 1013.5
20260503203303 15 220 3.2 4.8 0.00 0.00 0.00 38 1013.7
20260503202759 15 171 1.6 3.2 0.00 0.00 0.00 41 1013.5
20260503202258 15 237 4.8 6.4 0.00 0.00 0.00 37 1013.7
20260503201755 16 113 3.2 3.2 0.00 0.00 0.00 39 1013.5
20260503201252 15 329 3.2 4.8 0.00 0.00 0.00 38 1013.7
20260503200749 15 315 1.6 3.2 0.00 0.00 0.00 37 1013.6
20260503200245 16 229 6.4 6.4 0.00 0.00 0.00 37 1013.7
20260503195742 16 297 4.8 6.4 0.00 0.00 0.00 39 1014.0
20260503195239 15 242 4.8 6.4 0.00 0.00 0.00 38 1013.8
20260503194737 15 270 4.8 6.4 0.00 0.00 0.00 36 1013.9
20260503194232 15 284 4.8 4.8 0.00 0.00 0.00 37 1013.9
20260503193729 15 117 1.6 3.2 0.00 0.00 0.00 40 1014.1
20260503193225 16 170 3.2 3.2 0.00 0.00 0.00 40 1014.3
20260503192721 16 138 1.6 1.6 0.00 0.00 0.00 41 1014.2
20260503192216 16 176 1.6 1.6 0.00 0.00 0.00 38 1014.4
20260503191713 15 305 3.2 3.2 0.00 0.00 0.00 46 1014.5
20260503191210 16 176 1.6 1.6 0.00 0.00 0.00 41 1014.6
20260503190707 15 209 4.8 4.8 0.00 0.00 0.00 40 1014.5
20260503190204 15 306 8.0 9.7 0.00 0.00 0.00 37 1014.7
20260503185701 15 218 1.6 1.6 0.00 0.00 0.00 41 1014.7
20260503185156 15 246 3.2 4.8 0.00 0.00 0.00 42 1014.9
20260503184651 15 282 3.2 4.8 0.00 0.00 0.00 36 1014.9
20260503184148 15 315 3.2 4.8 0.00 0.00 0.00 37 1014.8
20260503183644 14 221 1.6 1.6 0.00 0.00 0.00 43 1015.1
20260503183142 15 204 1.6 3.2 0.00 0.00 0.00 42 1015.2
20260503182640 15 188 3.2 4.8 0.00 0.00 0.00 42 1015.3
20260503182139 15 206 6.4 6.4 0.00 0.00 0.00 38 1015.2
20260503181635 15 259 4.8 4.8 0.00 0.00 0.00 40 1015.4
20260503181131 15 192 4.8 6.4 0.00 0.00 0.00 39 1015.5
20260503180628 15 130 3.2 3.2 0.00 0.00 0.00 38 1015.3
20260503180126 14 290 3.2 4.8 0.00 0.00 0.00 38 1015.5
20260503175622 13 237 4.8 4.8 0.00 0.00 0.00 41 1015.5
20260503175119 14 272 3.2 3.2 0.00 0.00 0.00 39 1015.7
20260503174616 14 170 1.6 3.2 0.00 0.00 0.00 41 1015.8
20260503174114 14 114 1.6 1.6 0.00 0.00 0.00 41 1015.8
20260503173608 14 197 6.4 6.4 0.00 0.00 0.00 40 1015.9
20260503173105 13 152 1.6 3.2 0.00 0.00 0.00 45 1015.8
20260503172602 13 336 4.8 4.8 0.00 0.00 0.00 43 1016.1
20260503172100 14 145 0.0 1.6 0.00 0.00 0.00 47 1016.1
20260503171555 13 297 3.2 3.2 0.00 0.00 0.00 47 1016.0
20260503171053 15 151 1.6 1.6 0.00 0.00 0.00 40 1016.1
20260503170549 14 259 3.2 3.2 0.00 0.00 0.00 46 1016.0
20260503150942 12 180 3.2 3.2 0.00 0.00 0.00 50 1017.0
20260503150439 12 156 1.6 3.2 0.00 0.00 0.00 49 1016.9
20260503131331 7 134 0.0 1.6 0.00 0.00 0.00 65 1017.6
20260503130829 7 117 0.0 0.0 0.00 0.00 0.00 69 1017.5
20260503130326 7 121 0.0 1.6 0.00 0.00 0.00 71 1017.7
20260503110720 0 106 0.0 0.0 0.00 0.00 0.00 95 1016.7
20260503110217 0 106 0.0 0.0 0.00 0.00 0.00 95 1016.6
20260503100144 0 100 0.0 0.0 0.00 0.00 0.00 93 1016.2
20260503081538 0 105 0.0 0.0 0.00 0.00 0.00 92 1016.2
20260503081036 0 105 0.0 0.0 0.00 0.00 0.00 92 1016.2
20260503080532 0 105 0.0 0.0 0.00 0.00 0.00 92 1016.3
20260503072506 0 106 0.0 0.0 0.00 0.00 0.00 96 1016.1
20260503072003 0 106 0.0 0.0 0.00 0.00 0.00 96 1016.2
20260503071500 0 106 0.0 0.0 0.00 0.00 0.00 96 1016.2
20260503070955 0 106 0.0 0.0 0.00 0.00 0.00 97 1016.1
20260503070453 0 106 0.0 0.0 0.00 0.00 0.00 97 1016.2